Location: Newark
(48.1281°N, 2.1556°W)
Time: 05:16:20
(UTC+00:00)

Envisat - Pass Details

Date: 25 November 2019
Orbit: 764 x 766 km, 98.1° (Epoch: 10 December)

Event Time Altitude Azimuth Distance (km) Brightness Sun altitude
Rises 16:54:42 0° 132° (SE) 3,224 6.0 -5.8°
Reaches altitude 10° 16:57:16 10° 121° (ESE) 2,302 5.2 -6.1°
Maximum altitude 17:01:32 28° 63° (ENE) 1,410 3.8 -6.8°
Drops below altitude 10° 17:05:49 10° 6° (N) 2,314 5.2 -7.5°
Sets 17:08:24 0° 355° (N) 3,244 6.1 -7.9°
